Location: Unspecified
(0.0000°N, 0.0000°E)
Time: 07:40:36
(UTC+00:00)

deb Delta 104 - Pass Details

Date: 13 March 2026
Orbit: 1402 x 1485 km, 102.0° (Epoch: 18 April)

Event Time Altitude Azimuth Distance (km) Brightness Sun altitude
Rises 18:46:24 0° 172° (S) 4,493 ? -9.2°
Reaches altitude 10° 18:49:10 10° 176° (S) 3,524 ? -9.9°
Maximum altitude 18:57:13 61° 254° (WSW) 1,605 ? -11.9°
Drops below altitude 10° 19:05:24 10° 332° (NNW) 3,573 ? -14.0°
Sets 19:08:15 0° 336° (NNW) 4,560 ? -14.7°
